Powrót do katalogu

SCOUT A R/B

AktywnyPO
NORAD 1865·ROCKET BODY·🇺🇸 United States

Wystrzelony Dec 22, 1965 z Vandenberg Space Force Base

Loading…

Następne Przeloty (najbliższe 24 godziny)

TLE

ŚwieżeSource: Space-Track

Epoka: Sep 14, 2026, 08:10 UTC

1 01865U 65109B   26257.34068685  .00000107  00000-0  90054-4 0  9993
2 01865  89.0695 240.2891 0113728  76.3104 285.0693 13.76848662 45900

Śledź SCOUT A R/B w czasie rzeczywistym z AllMySat

Download on the App Store